STARLINK-5712 (55615 NORAD) Tracking and Keplerian Element Data

This shows tracking and keplerian element data for the satellite.

Feedback or suggestion? Click here.




ElementValue
Catalog55615
NameSTARLINK-5712
Epoch Orbit660
Epoch Day85.25001157
Epoch Year2023
RAAN103.8432
Inclination42.998
Eccentricity0.000134
Argument of Perigee272.3805
Mean Anonmoly100.908
Mean Motion15.48932063
Decay Rate-0.00056579
L11 55615U 23020AY 23085.25001157 -.00056579 00000+0 -10237-2 0 9996
L22 55615 42.9980 103.8432 0001340 272.3805 100.9080 15.48932063 6603



Live tracking and technical data element details for STARLINK-5712 (NORAD 55615). STARLINK-5712 can be tracked NOW for your location showing map with azimuth and elevation plus other details from your city location.







IsCatalogInMostPopularTable: catalog: 55615, numindb: 5
Update: records affected: 1



GetName: 55615 STARLINK-5712

Hit Count: updated at: Tue, 28 Mar 2023 03:27:43 GMT